Tracking 25612 objects as of 19-May-2022
HD Live streaming from Space Station
objects crossing your sky now

SL-14 DEB

Track SL-14 DEB now!
10-day predictions


NORAD ID: 26023
Int'l Code: 1991-068AJ
Perigee: 1,458.6 km
Apogee: 1,477.2 km
Inclination: 82.6 °
Period: 115.1 minutes
Semi major axis: 7838 km
RCS: 0.0267 m2 (small)
Launch date: September 28, 1991
Source: Commonwealth of Independent States (former USSR) (CIS)
Launch site: PLESETSK MISSILE AND SPACE COMPLEX (PKMTR)

Note: This is SATELLITE DEBRIS
aabbcc
Your satellite tracking list
Your tracking list is empty




NASA's NSSDC Master Catalog

Two Line Element Set (TLE):
1 26023U 91068AJ  22139.01638964  .00000253  00000-0  15808-2 0  9995
2 26023  82.5789 345.4133 0011911 357.5450 127.9629 12.50892257400774
Source of the keplerian elements: AFSPC